Погода в Ораз-Ауле

Россия / Чеченская Республика     43°33′22″N   45°57′28″E
темп.,
°C
ветер,
м/с
пор.,
м/с
влажн.,
%
обл.,
%
осадки,
мм/ч
давл.,
гПа
погр.,
м
12 апреля, пн
пн1200:00+11з337090 0.0 101553
03:00+11з3669100 0.0 1016174
06:00+10з377170 0.0 1017232
09:00+15зсз4556100 0.0 1019825
12:00+18сз3348100 0.0 10191354
15:00+18ссз2248100 0.0 10191391
18:00+15зсз4664100 0.0 1020319
21:00+13зсз477434 0.0 1021332
13 апреля, вт
вт1300:00+12зсз367764 0.0 1021228
03:00+11з367936 0.0 1022207
06:00+10зсз3483100 0.0 1022154
09:00+14сз2267100 0.0 1022643
12:00+15сз126373 0.0 1021828
15:00+19зюз125344 0.0 10191000
18:00+17св135791 0.0 1018192
21:00+11всв2468100 0.0 101998
14 апреля, ср
ср1400:00+10всв227655 0.0 101754
03:00+9з1282100 0.0 101533
06:00+10з2686100 0.0 1015199
09:00+15з4572100 0.0 1016683
12:00+16з5664100 0.0 1015954
15:00+14зюз2480100 1.6 1016345
18:00+14ююз127796 0.8 101640
21:00+12з3787100 1.8 1017216
15 апреля, чт
чт1500:00+11зюз348499 0.4 1017130
03:00+11зюз2384100 0.4 101649
06:00+11з3583100 0.0 1016149
09:00+14зсз456385 0.0 1016495
12:00+19сз344311 0.0 10151521
15:00+21ссз34372 0.0 10131996
18:00+19сз11452 0.0 1013214
21:00+16юз12491 0.0 101411
16 апреля, пт
пт1600:00+14юз1155100 0.0 101312
03:00+12юз116111 0.0 101210
06:00+12зюз226492 0.0 101428
09:00+19зсз444563 0.0 1015672
12:00+22сз4335100 0.0 10141868
15:00+23сз323294 0.0 10132480
18:00+15зсз81180100 0.8 1016470
21:00+12зсз469098 3.3 1018398